#timestamp,LO_Frequency,Hit,StdDev 
1506348015.9,286046993.5,N
1506348035.7,286046996.0,N
1506348055.6,286046997.7,N
1506348075.4,286046998.5,N
1506348095.2,286046996.2,N
1506348115.0,286046995.3,N
1506348116.0,286046995.3,N
1506348135.8,286046995.6,N
1506348155.6,286047000.4,N
1506348175.4,286047001.1,N
1506348195.3,286046998.7,N
1506348215.1,286047000.5,N
1506348235.8,286046996.9,N
1506348255.7,286046996.9,N
1506348275.5,286047001.9,N
1506348295.3,286047002.1,N
1506348315.2,286046998.9,N
1506348335.9,286046993.3,N
1506348355.7,286046998.0,N
1506348375.6,286046995.6,N
1506348395.4,286046995.2,N
1506348415.2,286046996.6,N
1506348435.0,286046996.2,N
1506348436.0,286046996.2,N
1506348455.8,286046999.5,N
1506348475.6,286046996.8,N
1506348495.4,286047002.2,N
1506348515.3,286047000.0,N
1506348535.1,286046998.1,N
1506348555.8,286046999.4,N
1506348575.7,286046999.6,N
1506348595.5,286046997.4,N
1506348615.3,286046995.6,N
1506348635.2,286046997.7,N
1506348655.9,286046996.1,N
1506348675.7,286046997.1,N
1506348695.6,286046997.5,N
1506348715.4,286046997.1,N
1506348735.2,286046999.6,N
1506348755.0,286046998.5,N
1506348756.0,286046998.5,N
1506348775.8,286046997.3,N
1506348795.6,286046995.7,N
1506348815.4,286046998.8,N
1506348835.3,286046995.0,N
1506348855.1,286046994.9,N
1506348875.9,286046994.0,Y
1506348895.7,286047000.7,P
1506348915.5,286046998.9,N
1506348935.3,286046998.6,N
1506348955.2,286047001.9,N
1506348975.0,286046998.4,N
1506348975.9,286046998.4,N
1506348995.7,286046997.3,N
1506349015.6,286046997.1,N
1506349035.4,286046995.6,N
1506349055.2,286046997.2,N
1506349075.1,286047000.2,N
1506349076.0,286047000.2,N
1506349095.8,286047000.8,N
1506349115.6,286047002.5,N
1506349135.5,286047001.0,N
1506349155.3,286047002.8,N
1506349175.1,286046998.2,N
1506349195.9,286046996.6,N
1506349215.7,286046998.7,N
1506349235.5,286046999.6,N
1506349255.4,286047000.2,N
1506349275.2,286047000.4,N
1506349295.0,286046998.8,N
1506349295.9,286046998.8,N
1506349315.7,286046996.7,N
1506349335.6,286047000.3,N
1506349355.4,286047002.5,N
1506349375.2,286047004.1,N
1506349395.1,286047001.3,N
1506349396.0,286047001.3,N
1506349415.8,286047003.9,N
1506349435.6,286047002.2,N
1506349455.5,286047002.5,N
1506349475.3,286047001.6,N
1506349495.1,286047004.0,N
1506349515.9,286047003.1,N
1506349535.7,286047002.8,N
1506349555.5,286047000.7,N
1506349575.4,286047002.2,N
1506349595.2,286047002.2,N
1506349615.0,286047002.5,N
1506349615.9,286047002.5,N
1506349635.8,286047002.6,N
1506349655.6,286047001.5,N
1506349675.4,286046998.5,N
1506349695.2,286047003.7,N
1506349715.1,286047001.2,N
1506349716.0,286047001.2,N
1506349735.8,286047003.9,N
1506349755.6,286047002.0,N
1506349775.5,286047002.6,N
1506349795.3,286047004.2,N
1506349815.1,286047005.4,Y
1506349835.9,286047002.6,P
1506349855.7,286047001.7,P
1506349875.5,286047001.0,N
1506349895.4,286047000.7,N
1506349915.2,286047000.4,N
1506349935.0,286046998.1,N
1506349935.9,286046998.1,N
1506349955.8,286046998.5,N
1506349975.6,286047002.3,N
1506349995.4,286047004.3,N
1506350015.3,286047001.7,N
1506350035.1,286046996.6,N
1506350036.0,286046996.6,N
1506350055.8,286047000.4,N
1506350075.7,286047001.6,N
1506350095.5,286047001.1,N
1506350115.3,286047001.9,N
1506350135.2,286047002.5,N
1506350155.9,286047002.4,N
1506350175.7,286047001.0,N
1506350195.6,286046999.2,N
1506350215.4,286046998.5,N
1506350235.2,286047002.8,N
1506350255.0,286047000.7,N
1506350255.9,286047000.7,N
1506350275.8,286046999.4,N
1506350295.6,286047000.5,N
1506350315.4,286047003.9,N
1506350335.3,286047001.3,N
1506350355.1,286047002.3,N
1506350356.0,286047002.3,N
1506350375.8,286047002.1,N
1506350395.7,286046998.2,N
1506350415.5,286046999.0,N
1506350435.3,286046997.3,N
1506350455.2,286046991.7,Y
1506350475.9,286046990.4,P
1506350495.7,286046994.6,N
1506350515.6,286046994.9,N
1506350535.4,286046992.6,N
1506350555.2,286046992.9,N
1506350575.1,286046987.0,Y
1506350576.0,286046987.0,P
1506350595.8,286046994.0,N
1506350615.6,286046997.2,N
1506350635.5,286047001.0,N
1506350655.3,286047000.4,N
1506350675.1,286047002.0,N
1506350695.9,286047001.9,N
1506350715.7,286046998.9,N
1506350735.5,286046996.7,N
1506350755.3,286046997.8,N
1506350775.2,286047001.2,N
1506350795.0,286046998.7,N
1506350795.9,286046998.7,N
1506350815.7,286047000.2,N
1506350835.6,286047000.1,N
1506350855.4,286047000.4,N
1506350875.2,286047000.0,N
1506350895.1,286046999.0,N
1506350896.0,286046999.0,N
1506350915.8,286047000.6,N
1506350935.6,286047001.2,N
1506350955.5,286047000.6,N
1506350975.3,286046998.6,N
1506350995.1,286046997.0,N
1506351015.9,286047000.9,N
1506351035.7,286047001.3,N
1506351055.5,286047002.2,N
1506351075.3,286046998.8,N
1506351095.2,286047001.7,N
1506351115.0,286047002.1,N
1506351115.9,286047002.1,N
1506351135.7,286047000.9,N
1506351155.6,286047000.1,N
1506351175.4,286047001.9,N
1506351195.2,286047003.6,N
1506351215.1,286047000.7,N
1506351216.0,286047000.7,N
1506351235.8,286046998.7,N
1506351255.6,286046997.0,N
1506351275.5,286046998.7,N
1506351295.3,286046999.1,N
1506351315.1,286046997.8,N
1506351335.9,286046995.8,N
1506351355.7,286046997.4,N
1506351375.5,286046996.5,N
1506351395.4,286046997.7,N
1506351415.2,286046997.4,N
1506351435.0,286046993.4,Y
1506351435.9,286046993.4,P
1506351455.8,286046995.3,N
1506351475.6,286046994.6,N
1506351495.4,286046994.0,N
1506351515.3,286046995.0,N
1506351535.1,286046995.3,N
1506351536.0,286046995.3,N
1506351555.8,286046995.8,N
1506351575.7,286046998.0,N
1506351595.5,286046995.5,N
